Weather History for Tanana, AK

Change the Weather History Date:

Wednesday, May 21, 2014

  Actual Average Record
Temperature  
Mean Temperature 52 °F -  
Max Temperature 62 °F 59 °F 81 °F (2002)
Min Temperature 43 °F 35 °F 19 °F (1952)
Degree Days  
Heating Degree Days 13    
Growing Degree Days 2 (Base 50)    
Moisture  
Dew Point 27 °F    
Average Humidity 37    
Maximum Humidity 52    
Minimum Humidity 23    
Precipitation  
Precipitation 0.00 in - - ()
Sea Level Pressure  
Sea Level Pressure 29.98 in    
Wind  
Wind Speed 8 mph (North)    
Max Wind Speed 15 mph    
Max Gust Speed 24 mph    
Visibility 10 miles    
Events      
Averages and records for this station are not official NWS values.
T = Trace of Precipitation, MM = Missing Value Source: NWS Daily Summary

Daily Weather History Graph

Daily Weather History Graph

Search for Another Location

Airport:

Trip Planner

Search our weather history database for the weather conditions in past years. The results will help you decide how hot, cold, wet, or windy it might be!

Date:

Astronomy

May. 21, 2014 Rise Set
Actual Time 4:19 AM AKDT 11:53 PM AKDT
Civil Twilight 2:37 AM AKDT 1:32 AM AKDT
Nautical Twilight Sun does not rise Sun does not rise
Astronomical Twilight Sun does not rise Sun does not rise
Moon 3:19 AM AKDT (5/21) 1:43 PM AKDT (5/21)
Length of Visible Light 22h 55m
Length of Day
19h 34m
Waning Gibbous, 47% of the Moon is Illuminated
May 21
Waning Gibbous
May 28
New
Jun 5
First Quarter
Jun 12
Full
Jun 19
Last Quarter

Hourly Weather History & Observations

Time (AKDT) Temp. Windchill Dew Point Humidity Pressure Visibility Wind Dir Wind Speed Gust Speed Precip Events Conditions
12:52 AM 43.0 °F 41.3 °F 26.1 °F 51% 29.98 in 10.0 mi West 3.5 mph - N/A   Partly Cloudy
1:52 AM 48.0 °F - 26.1 °F 42% 29.98 in 10.0 mi North 12.7 mph 20.7 mph N/A   Clear
2:52 AM 46.0 °F 40.6 °F 27.0 °F 47% 29.98 in 10.0 mi North 11.5 mph - N/A   Clear
3:52 AM 46.0 °F 39.6 °F 28.0 °F 50% 29.98 in 10.0 mi North 15.0 mph 24.2 mph N/A   Partly Cloudy
4:52 AM 45.0 °F 41.8 °F 28.0 °F 52% 29.98 in 10.0 mi North 5.8 mph - N/A   Overcast
5:52 AM 46.0 °F 40.6 °F 28.9 °F 51% 29.98 in 10.0 mi North 11.5 mph - N/A   Overcast
6:52 AM 46.0 °F 41.4 °F 28.9 °F 51% 29.99 in 10.0 mi North 9.2 mph - N/A   Overcast
7:52 AM 48.0 °F - 28.9 °F 48% 29.99 in 10.0 mi North 12.7 mph - N/A   Overcast
8:52 AM 48.9 °F - 28.0 °F 44% 29.99 in 10.0 mi North 9.2 mph - N/A   Overcast
9:52 AM 53.1 °F - 28.0 °F 38% 30.00 in 10.0 mi NNW 10.4 mph - N/A   Overcast
10:52 AM 57.0 °F - 32.0 °F 39% 30.00 in 10.0 mi SE 8.1 mph - N/A   Overcast
11:52 AM 55.9 °F - 30.0 °F 37% 29.99 in 10.0 mi SW 4.6 mph - N/A   Mostly Cloudy
12:52 PM 57.0 °F - 28.0 °F 33% 29.99 in 10.0 mi NW 8.1 mph - 0.00 in   Overcast
1:52 PM 59.0 °F - 24.1 °F 26% 29.99 in 10.0 mi NE 4.6 mph - N/A   Overcast
2:52 PM 61.0 °F - 23.0 °F 23% 29.98 in 10.0 mi NW 4.6 mph - N/A   Overcast
3:52 PM 59.0 °F - 24.1 °F 26% 29.98 in 10.0 mi NE 10.4 mph - N/A   Overcast
4:52 PM 60.1 °F - 21.9 °F 23% 29.97 in 10.0 mi ENE 3.5 mph - N/A   Overcast
5:52 PM 59.0 °F - 24.1 °F 26% 29.96 in 10.0 mi NNE 4.6 mph - N/A   Overcast
6:52 PM 59.0 °F - 23.0 °F 25% 29.96 in 10.0 mi North 3.5 mph - N/A   Overcast
7:52 PM 59.0 °F - 25.0 °F 27% 29.95 in 10.0 mi NNE 6.9 mph - N/A   Overcast
8:52 PM 57.0 °F - 24.1 °F 28% 29.95 in 10.0 mi NNW 11.5 mph 18.4 mph N/A   Overcast
9:52 PM 55.9 °F - 26.1 °F 32% 29.95 in 10.0 mi North 8.1 mph - N/A   Overcast
10:52 PM 53.1 °F - 27.0 °F 37% 29.95 in 10.0 mi NNW 4.6 mph - N/A   Overcast
11:52 PM 50.0 °F - 27.0 °F 41% 29.95 in 10.0 mi NNW 5.8 mph - N/A   Overcast